CZ-6A DEB

Satellite information

Favourite Embed

Satellite Type and Status

DEBRISIN ORBIT

Key statistics

Satellite CZ-6A DEB at a glance.

Uptime

1129

Days in orbit

Revolutions

≈ 14.4

Per day

Orbit

SSO

Sun Synchronous Orbit

Inclination

98.6

Latest

Satellite identification and parameters

Extended collection of information and parameters for CZ-6A DEB.

Object identification

Identified? True

Debris? True

Object name: CZ-6A DEB

International designator: 2022-151ABS

Object number (NORAD): 56250

Object ID (CCSDS): 56250

Country: PEOPLES REPUBLIC OF CHINA (PRC)

Current information (Y/N): Y

RCS size: SMALL

Orbital parameters

Period: 99.689 minutes

Inclination: 98.5759 deg

SMA: 7121.849 km

Apoapsis: 808.403 km

Periapsis: 679.024 km

RAAN: 9.7289 deg

Eccentricy: 0.00908327

Argument of periapsis: 190.3346 deg

Mean anomaly: 169.598 deg

Mean motion: 14.4448703 rev/day

Mean motion (dot): 0.00005551 rev/day2

B* drag term: 0.0015409755 1/REarth

Two-line elements (TLE)

Creation date: Dec. 13, 2025, 5:47 p.m.

Reference frame: TEME

Reference center: EARTH

Epoch: Dec. 13, 2025, 8:07 a.m. UTC

TLE line 0: 0 CZ-6A DEB

TLE line 1: 1 56250U 22151ABS 25347.33851301 .00005551 00000-0 15410-2 0 9993

TLE line 2: 2 56250 98.5759 9.7289 0090833 190.3346 169.5980 14.44487030143716

Live tracking on map

Real-time ground track for satellite CZ-6A DEB.

In-orbit conjunctions

A list of the most updated potential collisions computed for object CZ-6A DEB.

Target Orbit TCA Probability of collision Miss distance Type
COSMOS 371 LEO 2025-12-06 20:33:19 0.0007595857 813.0 (m) PAYLOAD
FENGYUN 1C DEB SSO 2025-10-25 01:20:14 0.0002956107 43.0 (m) DEBRIS
COSMOS 372 LEO 2024-10-30 07:48:42 0.000321285 948.0 (m) PAYLOAD

Associated space launch

Chinese satellite reported for atmospheric/ocean/environmental/spatial parameter research purposes, details TBD.

CZ-6A DEB was lifted into orbit during the mission ‘Long March 6A | Yunhai 3’, on board a Long March 6A space rocket.

The launch took place on Nov. 11, 2022, 10:52 p.m. from Launch Complex 9A.

For more information about the launch, click the button.

Launch to space Long March 6A | Yunhai 3
Long March 6A | Yunhai 3

Agency: N/A

Status: Launch Successful

Launch date: Nov. 11, 2022, 10:52 p.m. UTC

Rocket: Long March 6A

Launch pad: Launch Complex 9A

Location: Taiyuan Satellite Launch Center, People's Republic of China

...

Latest news about this satellite

There are no fresh news available about this satellite. Check back as we update our databases every day.


Newsletter sign-up

Weekly statistics, charts and insights to help you stay on top of the space industry.